Location: Sternwarte_Laufen
(47.9344°N, 12.9346°E)
Time: 21:41:20
(UTC+02:00)

ISS - Pass Details

Date: 19 July 2018
Orbit: 402 x 408 km, 51.6° (Epoch: 17 July)

Event Time Altitude Azimuth Distance (km) Brightness Sun altitude
Rises 23:00:43 0° 231° (SW) 2,313 -0.1 -15.1°
Reaches altitude 10° 23:02:49 10° 226° (SW) 1,457 -1.1 -15.2°
Maximum altitude 23:06:00 51° 149° (SSE) 519 -3.7 -15.5°
Drops below altitude 10° 23:09:12 10° 73° (ENE) 1,467 -1.1 -15.8°
Sets 23:11:19 0° 68° (ENE) 2,331 0.0 -16.0°
